Regional Weather Roundup
Issued by NWS San Diego, CA

Home | Current Version | Previous Version | Text Only | Print | Product List | Glossary On
Versions: 1 2 3 4 5 6 7 8 9 10 11 12 13 14 15 16 17 18 19 20 21 22 23 24 25 26 27 28 29 30 31 32 33 34 35 36 37 38 39 40 41 42 43 44 45 46 47 48 49 50
000
ASUS46 KSGX 261010
RWRSGX

SAN DIEGO HOURLY WEATHER ROUNDUP
NATIONAL WEATHER SERVICE SAN DIEGO CA
200 AM PST FRI DEC 26 2014

NOTE: "FAIR" INDICATES FEW OR NO CLOUDS BELOW 12,000 FEET WITH NO
SIGNIFICANT WEATHER AND/OR OBSTRUCTIONS TO VISIBILITY.

CAZ042-043-060-061-PZZ750-775-261100-

GREATER SAN DIEGO AREA

CITY           SKY/WX    TMP DP  RH WIND       PRES   REMARKS
LINDBERGH FLD  CLEAR     49  38  65 CALM      29.95R
POINT LOMA       N/A     52  44  74 SE5         N/A
NATIONAL CITY    N/A     46  40  78 CALM      29.95R
CHULA VISTA      N/A     43  40  88 CALM      29.87R
IMPERIAL BEACH CLEAR     48  40  73 E8        29.94R
BROWN FIELD    CLEAR     47  36  65 SE9       29.93R
MIRAMAR MCAS   CLEAR     44  33  65 E9        29.93R
MONTGOMERY FLD CLEAR     45  35  68 NE3       29.93R

$$

NORTH SAN DIEGO COUNTY

CITY           SKY/WX    TMP DP  RH WIND       PRES   REMARKS
CAMP PENDLETON CLEAR     44  23  43 CALM      29.93R
OCEANSIDE AP   CLEAR     44  25  47 NE7       29.93R
OCEANSIDE HBR    N/A     52  23  32 NE9       29.95R
VISTA            N/A     44  26  50 CALM      29.93R
CARLSBAD       CLEAR     47  25  42 CALM      29.93R
DEL MAR          N/A     45  35  67 CALM      29.96R
FALLBROOK        N/A     50  20  30 S5        29.95R
ESCONDIDO        N/A     40  30  66 CALM      29.96R
SAN MARCOS       N/A     46  26  44 CALM      29.92R
POWAY            N/A     38  33  83 CALM      29.96R

$$

EAST SAN DIEGO COUNTY

CITY           SKY/WX    TMP DP  RH WIND       PRES   REMARKS
RAMONA         CLEAR     30  26  85 SE5       29.92R WCI  25
SANTEE LAKES     N/A     38  35  88 N2        29.96R
LA MESA          N/A     45  36  70 CALM      29.87S
JAMUL            N/A     42  33  70 S2        29.94R
DESCANSO N       N/A     32  21  64 E2        29.87R
MT. LAGUNA OBS   N/A     27  10  47 CALM      29.50R
CAMPO            N/A     28  20  71 N3        29.90R

$$

ORANGE COUNTY AND THE LOS ANGELES BASIN

CITY           SKY/WX    TMP DP  RH WIND       PRES   REMARKS
JOHN WAYNE AP  CLEAR     56  13  18 N3        29.94R
LAGUNA BEACH     N/A     43  27  54 NW2       29.89R
LAKE FOREST FR   N/A     52   8  17 NE22      29.82R
SANTA ANA        N/A     55  20  25 N3        29.89R
HUNTINGTON BCH   N/A     46  30  54 N1        29.97R
LOS ALAMITOS   FAIR      44  30  58 CALM      29.95R
FULLERTON      CLEAR     44  28  53 CALM      29.94R
LONG BEACH     CLEAR     49  25  39 W3        29.95R
L.A. AP        CLEAR     51  20  29 NE5       29.95R
L.A. DOWNTOWN  CLEAR     50  21  32 CALM      29.94R

$$

THE INLAND EMPIRE

CITY           SKY/WX    TMP DP  RH WIND       PRES   REMARKS
CORONA         CLEAR     51  14  23 SE5       29.96R
CHINO          CLEAR     38  26  62 N5        29.95R WCI  34
ONTARIO        CLEAR     45  18  34 VRB5      29.93R
RIVERSIDE AP   CLEAR     52  10  18 NE13G26   29.94F
RIV CYN CREST    N/A     50  27  40 W1          N/A
MORENO VALLEY    N/A     47  22  37 S5        29.13R
MARCH ARB      CLEAR     47  14  26 N16       29.94R
HORSETHIEF CYN   N/A     46  11  24 NW1       29.97R
PERRIS           N/A     47  23  39 SE2       29.95R
MENIFEE          N/A     36  29  76 N1        30.00S
HEMET EAST       N/A     39  11  32 CALM      29.96R
FRENCH VALLEY  FAIR      37  25  60 CALM      29.94S
TEMECULA         N/A     38  29  69 CALM      29.94R

$$

SAN BERNARDINO AND RIVERSIDE COUNTY MOUNTAINS

CITY           SKY/WX    TMP DP  RH WIND       PRES   REMARKS
BIG BEAR AP    CLEAR     18   9  68 CALM      29.91R
ANGELUS OAKS     N/A     28   6  40 CALM      29.94R
PINE COVE        N/A     26   6  42 CALM      29.96R

$$

SOUTHERN DESERT INCLUDING THE COACHELLA VALLEY

CITY           SKY/WX    TMP DP  RH WIND       PRES   REMARKS
PALM SPRINGS   CLEAR     49  16  26 SW6       29.98R
THOUSAND PALMS   N/A     54  14  20 SW3       29.93R
PALM DESERT      N/A     47  19  33 CALM      30.69S
THERMAL        CLEAR     52  11  19 W8        29.96R
BLYTHE         CLEAR     41  18  39 N8        29.94R
IMPERIAL AP    CLEAR     42  24  49 SW6       29.96R
EL CENTRO NAS  CLEAR     43  21  41 SW3       29.96R
YUMA AZ        CLEAR     46  22  38 CALM      29.94R

$$

UPPER DESERT

CITY           SKY/WX    TMP DP  RH WIND       PRES   REMARKS
VICTORVILLE AP   N/A     28  21  74 CALM      29.99S
HESPERIA         N/A     29  22  73 CALM      30.19R
PALMDALE       CLEAR     30  24  78 W7        30.01R WCI  23
LANCASTER      CLEAR     28  23  81 NW3       30.02R
EDWARDS AFB    CLEAR     43  27  52 NW8       29.91R
DAGGETT        CLEAR     33  15  47 NW5       30.01R WCI  29
29 PALMS N     CLEAR     40  12  32 W15       30.04R WCI  32
NEEDLES        CLEAR     48  11  22 N13       29.94R

$$

REGIONAL REPORTS

CITY           SKY/WX    TMP DP  RH WIND       PRES   REMARKS
SANTA BARBARA  CLEAR     43  30  60 NE3       29.99R
SANDBERG       CLEAR     31  24  75 N12       29.96S WCI  22
MT. WILSON       N/A     28   1  31 MISG        N/A
LAS VEGAS NV   CLEAR     43  10  26 NW17      29.91R
PHOENIX AZ     CLEAR     44  13  28 CALM      29.87R
TIJUANA        CLEAR     48  34  57 E8        29.95S
ENSENADA NW      N/A     53  32  44 NE20      29.91S

$$

OFFSHORE ISLANDS

CITY           SKY/WX    TMP DP  RH WIND       PRES   REMARKS
CATALINA ARPT  CLEAR     48  23  37 NE8       29.95R
SAN NICOLAS IS CLEAR    N/A N/A N/A N18G29    29.96R

$$

MARINE AND OFFSHORE BUOY REPORTS

STATION/POSITION SKY/WX   TEMP    WIND        PRES    SWELL
                          AIR SEA DIR/SP/G            HT/PER/DIR
                          (F)     (DEG/KT/KT) (MB)    (FT/S/D)
TANNER BANKS               59 63  350/ 17/ 19 1014.2R  15/320/11
S CLEMENTE BASIN           60 64  320/  8/ 10 1013.2R   7/290/14
SAN NICOLAS IS.               61                N/A     8/310/11
SO. S. ROSA ISLA           56 59  350/ 19/ 21 1014.9R  10/11
W. S. BARBARA CH           55 61  350/ 19/ 23 1015.4S  11/310/11
S. MONICA BASIN            58 63   20/ 19/ 23 1014.4R   3/310/13
S PEDRO CHANNEL               63                N/A     3/270/13
DANA POINT                    63                N/A     2/280/13
CMP PENDLETON NS              64                N/A     2/250/15
OCEANSIDE OFFSHR              65                N/A     3/260/15
TORREY PINES OTR              64                N/A     3/270/14
LA JOLLA 1                 54 63   CALM  /  2 1013.6R
MISSION BAY BUOY              64                N/A     5/280/14
SAN DIEGO BAY                 64              1014.2R
POINT LOMA SOUTH              64                N/A     5/260/15

$$




USA.gov is the U.S. government's official web portal to all federal, state and local government web resources and services.